Location: Oak Glen
(34.0495°N, 116.9470°E)
Time: 18:33:25
(UTC-07:00)

N. Korean satellite - Pass Details

Date: 13 October 2017
Orbit: 459 x 517 km, 97.2° (Epoch: 18 October)

Event Time Altitude Azimuth Distance (km) Brightness Sun altitude
Rises 04:09:07 0° 201° (SSW) 2,559 10.5 -19.1°
Reaches altitude 10° 04:11:44 10° 221° (SW) 1,670 9.8 -19.6°
Maximum altitude 04:14:11 17° 265° (W) 1,272 9.6 -20.1°
Drops below altitude 10° 04:16:37 10° 308° (NW) 1,656 10.0 -20.6°
Sets 04:19:12 0° 329° (NNW) 2,527 10.7 -21.1°
